Weather History for Billings, MT

Change the Weather History Date:

Monday, November 5, 2012

  Actual Average Record
Temperature  
Mean Temperature 55 °F 41 °F  
Max Temperature 69 °F 51 °F 74 °F (1980)
Min Temperature 40 °F 30 °F 0 °F (2003)
Degree Days  
Heating Degree Days 10 24  
Month to date heating degree days 79 118  
Since 1 July heating degree days 724 870  
Cooling Degree Days 0 0  
Month to date cooling degree days 0 0  
Year to date cooling degree days 958 636  
Growing Degree Days 6 (Base 50)    
Moisture  
Dew Point 35 °F    
Average Humidity 54    
Maximum Humidity 76    
Minimum Humidity 31    
Precipitation  
Precipitation 0.00 in 0.02 in 0.99 in (1972)
Month to date precipitation 0.09 0.11  
Year to date precipitation 6.31 12.64  
Snow  
Snow 0.00 in 0.20 in 4.00 in (2011)
Month to date snowfall 0.0 0.8  
Since 1 July snowfall 4.1 6.0  
Since 1 September snowfall 4.1 6.0  
Snow Depth 0.00 in    
Sea Level Pressure  
Sea Level Pressure 30.08 in    
Wind  
Wind Speed 15 mph (WSW)    
Max Wind Speed 33 mph    
Max Gust Speed 41 mph    
Visibility 10 miles    
Events      
T = Trace of Precipitation, MM = Missing Value Source: NWS Daily Summary

Daily Weather History Graph

Daily Weather History Graph

Search for Another Location

Airport:

Trip Planner

Search our weather history database for the weather conditions in past years. The results will help you decide how hot, cold, wet, or windy it might be!

Date:

Astronomy

Nov. 05, 2012 Rise Set
Actual Time 7:00 AM MST 4:54 PM MST
Civil Twilight 6:29 AM MST 5:25 PM MST
Nautical Twilight 5:53 AM MST 6:01 PM MST
Astronomical Twilight 5:19 AM MST 6:35 PM MST
Moon 10:35 PM MST (11/5) 12:22 PM MST (11/5)
Length of Visible Light 10h 56m
Length of Day
9h 53m
Waning Gibbous, 62% of the Moon is Illuminated
Nov 5
Waning Gibbous
Nov 6
Last Quarter
Nov 13
New
Nov 20
First Quarter
Nov 28
Full

Hourly Weather History & Observations

Time (MST) Temp. Windchill Dew Point Humidity Pressure Visibility Wind Dir Wind Speed Gust Speed Precip Events Conditions
12:53 AM 46.9 °F - 36.0 °F 66% 30.19 in 10.0 mi SW 12.7 mph - N/A   Clear
1:53 AM 48.0 °F - 35.1 °F 61% 30.17 in 10.0 mi SW 16.1 mph - N/A   Clear
2:53 AM 48.9 °F - 35.1 °F 59% 30.14 in 10.0 mi WSW 17.3 mph - N/A   Clear
3:53 AM 48.0 °F - 35.1 °F 61% 30.12 in 10.0 mi WSW 17.3 mph - N/A   Clear
4:53 AM 48.9 °F - 35.1 °F 59% 30.11 in 10.0 mi SW 16.1 mph - N/A   Clear
5:53 AM 46.0 °F 39.6 °F 34.0 °F 63% 30.10 in 10.0 mi SW 15.0 mph - N/A   Clear
6:53 AM 50.0 °F - 34.0 °F 54% 30.09 in 10.0 mi WSW 20.7 mph 28.8 mph N/A   Scattered Clouds
7:53 AM 50.0 °F - 34.0 °F 54% 30.08 in 10.0 mi WSW 19.6 mph 27.6 mph N/A   Scattered Clouds
8:53 AM 50.0 °F - 34.0 °F 54% 30.08 in 10.0 mi SW 17.3 mph - N/A   Mostly Cloudy
9:53 AM 52.0 °F - 34.0 °F 50% 30.05 in 10.0 mi WSW 25.3 mph - N/A   Mostly Cloudy
10:53 AM 54.0 °F - 34.0 °F 47% 30.06 in 10.0 mi WSW 20.7 mph - N/A   Mostly Cloudy
11:53 AM 57.0 °F - 34.0 °F 42% 30.04 in 10.0 mi SSW 15.0 mph - N/A   Scattered Clouds
12:53 PM 61.0 °F - 35.1 °F 38% 30.00 in 10.0 mi WSW 11.5 mph 21.9 mph N/A   Scattered Clouds
1:00 PM 68.0 °F - 35.6 °F 30% 30.01 in 10.0 mi West 27.6 mph 40.3 mph N/A   Squalls
1:08 PM 64.4 °F - 35.6 °F 34% 30.02 in 10.0 mi WSW 18.4 mph 38.0 mph N/A   Scattered Clouds
1:53 PM 69.1 °F - 37.0 °F 31% 29.95 in 10.0 mi West 29.9 mph 41.4 mph N/A   Scattered Clouds
2:53 PM 66.9 °F - 36.0 °F 32% 29.99 in 10.0 mi West 18.4 mph 29.9 mph N/A   Scattered Clouds
3:53 PM 62.1 °F - 35.1 °F 37% 30.02 in 10.0 mi SSW 12.7 mph - N/A   Scattered Clouds
4:53 PM 60.1 °F - 35.1 °F 39% 30.03 in 10.0 mi WNW 9.2 mph - N/A   Scattered Clouds
5:53 PM 63.0 °F - 36.0 °F 37% 30.01 in 10.0 mi NW 20.7 mph 27.6 mph N/A   Scattered Clouds
6:53 PM 61.0 °F - 35.1 °F 38% 30.03 in 10.0 mi WNW 11.5 mph - N/A   Clear
7:53 PM 57.9 °F - 34.0 °F 41% 30.09 in 10.0 mi Calm Calm - N/A   Clear
8:53 PM 46.9 °F - 36.0 °F 66% 30.15 in 10.0 mi NE 11.5 mph - N/A   Clear
9:53 PM 45.0 °F 40.1 °F 35.1 °F 68% 30.19 in 10.0 mi NE 9.2 mph - N/A   Clear
10:53 PM 43.0 °F 37.7 °F 35.1 °F 74% 30.19 in 10.0 mi ENE 9.2 mph - N/A   Clear
11:53 PM 39.9 °F 35.8 °F 34.0 °F 79% 30.21 in 10.0 mi NNE 5.8 mph - N/A   Clear